Regional Weather Roundup
Issued by NWS

Home | Current Version | Previous Version | Graphics & Text | Print | Product List | Glossary On
Versions: 1 2 3 4 5 6 7 8 9 10 11 12 13 14 15 16 17 18 19 20 21 22 23 24 25 26 27 28 29 30 31 32 33 34 35 36 37 38 39 40 41 42 43 44 45 46 47 48 49 50
430
ASUS45 KBOU 091207
RWRCO

WEATHER ROUNDUP FOR COLORADO
NATIONAL WEATHER SERVICE DENVER/BOULDER CO
500 AM MST TUE FEB 09 2016

NOTE: "FAIR" INDICATES FEW OR NO CLOUDS BELOW 12000 FEET WITH NO
SIGNIFICANT WEATHER AND/OR OBSTRUCTIONS TO VISIBILITY.

COZ001>005-013-030-031-091300-
...NORTHWEST COLORADO...

CITY           SKY/WX    TMP DP  RH WIND       PRES   REMARKS
CRAIG          CLOUDY    -4  -8  83 SW5       30.53S WCI -15
HAYDEN         CLOUDY    14   9  79 E13       30.51R WCI   0
MEEKER         CLOUDY    13   8  81 CALM      30.52R
MOUNT WERNER   NOT AVBL
STEAMBOAT SPGS CLOUDY     8   5  89 CALM      30.52S
WALDEN         CLOUDY    10   5  79 SE9       30.48R WCI  -2
$$

COZ006>008-011-091300-
...WEST CENTRAL VALLEYS...

CITY           SKY/WX    TMP DP  RH WIND       PRES   REMARKS
GRAND JUNCTION CLOUDY    18  16  92 E3        30.52R
MONTROSE       CLOUDY    17  11  77 S10       30.54R WCI   5
EAGLE          CLOUDY     9   9 100 E5        30.59R WCI   0
RIFLE          CLOUDY    11   7  84 S3        30.54R
DELTA          CLOUDY    21  18  86 E5        30.54R WCI  15
NUCLA          CLOUDY    21  16  79 E9        30.53R WCI  11
$$

COZ017>023-064>068-091300-
...SOUTHWEST COLORADO...

CITY           SKY/WX    TMP DP  RH WIND       PRES   REMARKS
DURANGO        CLOUDY    11   8  88 NE3       30.41R
CORTEZ         CLOUDY    17  13  84 NE9       30.43S WCI   6
PAGOSA SPRINGS CLOUDY    13  12  95 CALM      30.42R
TELLURIDE      CLOUDY    24   5  44 SE6       30.50S WCI  16
WOLF CREEK PAS CLOUDY    28 -15  14 N15G23    30.51S WCI  17
$$

COZ009-010-012-014-032>034-037-058>063-091300-
...CENTRAL COLORADO...

CITY           SKY/WX    TMP DP  RH WIND       PRES   REMARKS
ASPEN          CLOUDY    16   9  74 S8        30.50S WCI   5
BUENA VISTA    CLOUDY    29  14  52 NW22G29   30.40S WCI  16
COPPER MTN     CLOUDY    23   3  42 W18G30    30.48R WCI   9
BERTHOUD PASS  FAIR      10   0  61 NW26G36   30.44R WCI -11
COTTONWOOD PAS CLOUDY    32   0  25 W15G28    30.43S WCI  22
GUNNISON       CLOUDY    -6 N/A N/A CALM      30.58R
KREMMLING      CLOUDY    -2  -8  78 CALM      30.57R
LEADVILLE      CLOUDY    13  10  88 NE8       30.46S WCI   2
MONARCH PASS   CLOUDY    19   5  53 MISG      30.56S
SALIDA         NOT AVBL
SUNLIGHT       CLOUDY    25  16  68 N9          N/A  WCI  15
WILKERSON PASS CLOUDY    27  -6  24 NW9G18    30.45R WCI  17
$$

COZ069>075-091300-
...SAN LUIS VALLEY/SANGRE DE CRISTO MOUNTAINS...

CITY           SKY/WX    TMP DP  RH WIND       PRES   REMARKS
ALAMOSA        CLOUDY    12   8  84 W6        30.42R WCI   3
LA VETA PASS   CLOUDY    23  12  63 MISG      30.41R
SAGUACHE       CLOUDY    30  16  55 NW29      30.41F WCI  15
$$

COZ035-036-038>040-091300-
...NORTHERN COLORADO FRONT RANGE...

CITY           SKY/WX    TMP DP  RH WIND       PRES   REMARKS
DENVER INTL AP CLOUDY    31  19  61 SW10      30.28F WCI  22
DMNS CITY PARK   N/A     29  19  66 S7G13     30.31S WCI  22
AURORA         PTCLDY    29  19  65 S12       30.30S WCI  20
FRONT RANGE AP   N/A     25  18  74 S8        30.30S WCI  16
ERIE MUNI ARPT CLOUDY    21  19  91 CALM      30.29S
BOULDER MUN AP CLOUDY    28  19  69 W5        30.28S WCI  23
CENTENNIAL     CLOUDY    24  15  68 S6        30.30R WCI  17
BROOMFIELD     CLOUDY    34  19  55 W3        30.29S
FORT COLLINS   CLOUDY    21  16  79 CALM      30.29F
LONGMONT       CLOUDY    19  13  79 CALM      30.32R
$$

COZ041-046-047-076>085-087-088-091300-
...PIKES PEAK/PALMER DIVIDE AND SOUTHERN FOOTHILLS...

CITY           SKY/WX    TMP DP  RH WIND       PRES   REMARKS
COLO. SPRINGS  CLOUDY    24  15  68 N10       30.34R WCI  14
A. F. ACADEMY  CLEAR     17  13  84 N10       30.33R WCI   5
SCHRIEVER AFB  NOT AVBL
ELLICOTT       NOT AVBL
FALCON         NOT AVBL
FORT CARSON    CLOUDY    25  17  71 NW14      30.32R WCI  13
LIMON          CLOUDY    20  14  77 NW16      30.30R WCI   6
MONUMENT HILL  CLOUDY    27  18  69 SW10      30.34R WCI  17
TRINIDAD       CLOUDY    22  17  81 W10       30.35S WCI  11
$$

COZ042>045-048>051-090-091-091300-
...NORTHEAST COLORADO...

CITY           SKY/WX    TMP DP  RH WIND       PRES   REMARKS
GREELEY ARPT   CLOUDY    16  14  93 W6        30.30S WCI   7
AKRON          CLEAR     27  20  75 W18       30.24S WCI  14
BURLINGTON     CLEAR     29  20  69 NW12      30.23S WCI  19
WRAY           CLOUDY    35  26  71 W14       30.23R WCI  25
STERLING       CLEAR     36  27  69 NW15      30.25R
HOLYOKE        CLOUDY    41  28  60 NW20G26   30.21S
FORT MORGAN    CLEAR     19  17  90 W12       30.29R WCI   7
$$

COZ086-089-092>099-091300-
...SOUTHEAST COLORADO...

CITY           SKY/WX    TMP DP  RH WIND       PRES   REMARKS
PUEBLO         CLOUDY    25  19  78 W12       30.35R WCI  14
LA JUNTA       CLEAR     28  22  78 W12       30.33R WCI  18
LAMAR          CLEAR     29  24  82 SW8       30.29R WCI  21
SPRINGFIELD      N/A     30  23  75 W12       30.30R WCI  20
$$




USA.gov is the U.S. government's official web portal to all federal, state and local government web resources and services.